Location: Rodanthe
(35.5920°N, 75.4670°W)
Time: 05:29:52
(UTC-04:00)

ISS - All Passes

Search period start: 29 July 2015 00:00
Search period end: 08 August 2015 00:00
Orbit: 401 x 403 km, 51.6° (Epoch: 29 July)

Date Brightness Start Highest point End Pass type
(mag) Time Alt. Az. Time Alt. Az. Time Alt. Az.
29 Jul - 00:06:15 10° NW 00:07:54 13° NNW 00:09:28 10° N night (unlit)
29 Jul - 04:58:04 10° NNW 05:00:54 27° NE 05:03:46 10° E visible
29 Jul - 06:34:33 10° WNW 06:37:17 24° SW 06:39:59 10° S daylight
29 Jul - 21:35:07 10° SSW 21:38:08 37° SE 21:41:11 10° ENE visible
29 Jul - 23:12:09 10° W 23:14:41 20° NNW 23:17:10 10° NNE night (unlit)
30 Jul - 04:05:35 10° NNW 04:07:45 16° NNE 04:09:57 10° ENE visible
30 Jul - 05:41:13 10° WNW 05:44:25 55° SW 05:47:36 10° SSE visible
30 Jul - 20:43:04 10° S 20:45:18 18° SE 20:47:36 10° E visible
30 Jul - 22:18:32 10° WSW 22:21:33 35° NW 22:24:36 10° NNE visible
31 Jul - 03:13:38 10° N 03:14:29 11° NNE 03:15:24 10° NE visible
31 Jul - 04:48:14 10° NW 04:51:29 65° NE 04:54:43 10° ESE visible
31 Jul - 21:25:17 10° SW 21:28:32 75° NW 21:31:47 10° NE visible
31 Jul - 23:04:13 10° NW 23:05:28 12° NNW 23:06:39 10° N visible
01 Aug - 03:55:28 10° NNW 03:58:26 32° NE 04:01:25 10° E visible
01 Aug - 05:32:14 10° W 05:34:44 20° SW 05:37:11 10° S visible
01 Aug - 20:32:28 10° SSW 20:35:36 47° SE 20:38:45 10° ENE visible
01 Aug - 22:09:53 10° WNW 22:12:13 18° NNW 22:14:31 10° NNE visible
02 Aug - 03:02:54 10° NNW 03:05:17 19° NNE 03:07:42 10° ENE visible
02 Aug - 04:38:46 10° WNW 04:41:53 43° SW 04:44:59 10° SSE visible
02 Aug - 19:40:11 10° S 19:42:44 21° SE 19:45:19 10° ENE daylight
02 Aug - 21:16:08 10° W 21:19:03 30° NW 21:21:59 10° NNE visible
03 Aug - 02:10:41 10° N 02:12:02 12° NNE 02:13:26 10° NE night (unlit)
03 Aug - 03:45:41 10° NW 03:48:57 81° NE 03:52:12 10° SE night (unlit)
03 Aug - 18:49:35 10° SE 18:49:54 10° SE 18:50:21 10° ESE daylight
03 Aug - 20:22:47 10° WSW 20:25:59 60° NW 20:29:13 10° NE daylight
03 Aug - 22:02:22 10° NNW 22:03:01 10° NNW 22:03:35 10° NNW visible
04 Aug - 02:52:50 10° NNW 02:55:55 38° NE 02:58:59 10° ESE night (unlit)
04 Aug - 04:29:57 10° W 04:32:09 16° SW 04:34:15 10° S night (unlit)
04 Aug - 19:29:49 10° SW 19:33:01 60° SE 19:36:14 10° NE daylight
04 Aug - 21:07:36 10° WNW 21:09:43 16° NNW 21:11:47 10° NNE visible
05 Aug - 02:00:12 10° NNW 02:02:47 21° NNE 02:05:23 10° E night (unlit)
05 Aug - 03:36:16 10° WNW 03:39:17 35° SW 03:42:16 10° SSE night (unlit)
05 Aug - 18:37:21 10° S 18:40:06 26° SE 18:42:55 10° ENE daylight
05 Aug - 20:13:43 10° W 20:16:31 25° NNW 20:19:18 10° NNE daylight
06 Aug - 01:07:50 10° N 01:09:32 13° NNE 01:11:17 10° ENE night (unlit)
06 Aug - 02:43:06 10° NW 02:46:21 81° SW 02:49:36 10° SE night (unlit)
06 Aug - 17:45:50 10° SSE 17:47:15 13° SE 17:48:49 10° E daylight
06 Aug - 19:20:14 10° WSW 19:23:24 48° NW 19:26:34 10° NE daylight
07 Aug - 01:50:11 10° NW 01:53:20 45° NE 01:56:29 10° ESE night (unlit)
07 Aug - 03:27:45 10° W 03:29:30 13° SW 03:31:08 10° SSW night (unlit)
07 Aug - 18:27:09 10° SW 18:30:23 76° SE 18:33:38 10° NE daylight
07 Aug - 20:05:20 10° WNW 20:07:11 14° NNW 20:08:58 10° N daylight
